APL Coral — WDF6832 — position and weather

sailwx.info

Track history (hours):
 
Tides and Currents Weather Stations Pressure Air Temp Water Temp Dewpoint Dewpoint Depression Visibility Wind Speed Wind Dir Waves Ship Positions

APL Coral

Owner: APL Maritime Ltd., Bethesda, MD. More information available from US FCC via Universal Licensing System and Coast Guard Vessel Documentation Center.

Last reported at 2014-Oct-02 03:29 UTC. Time now 2014-Oct-02 12:31 UTC.
Position N 44°16' W 063°25'.

Length 275 m; draft 13.1 m.

Type: Ship (hazmat cat A). MMSI: 367478280.

Date/timePositionNaut miles runAvg speedWind from/ knotsBaromVisibWave heightAir tempDewpointWater temp
2014-Oct-02 03:29N 44°16' W 063°25'1516.5
2014-Oct-02 02:33N 44°31' W 063°31'10 9.7
2014-Oct-02 01:33N 44°40' W 063°35'2 1.6
2014-Oct-02 00:31N 44°40' W 063°38'0 0.0
2014-Oct-01 23:33N 44°40' W 063°38'0 0.0
2014-Oct-01 22:33N 44°40' W 063°38'0 0.0
2014-Oct-01 21:33N 44°40' W 063°38'0 0.0
2014-Oct-01 20:33N 44°40' W 063°38'0 0.0
2014-Oct-01 19:33N 44°40' W 063°38'0 0.0
2014-Oct-01 18:33N 44°40' W 063°38'0 0.0
2014-Oct-01 17:33N 44°40' W 063°38'0 0.0
2014-Oct-01 16:30N 44°40' W 063°38'0 0.1
2014-Oct-01 15:33N 44°40' W 063°38'0 0.1
2014-Oct-01 14:33N 44°40' W 063°38'0 0.0
2014-Oct-01 13:33N 44°40' W 063°38'0 0.0
2014-Oct-01 12:33N 44°40' W 063°38'0 0.0
2014-Oct-01 11:33N 44°40' W 063°38'  
2014-Sep-25 20:23N 36°41' W 010°11'1720.3
2014-Sep-25 19:33N 36°33' W 009°54'2020.1
2014-Sep-25 18:34N 36°23' W 009°32'19719.6
2014-Sep-25 08:32N 35°60' W 005°29'69319.1
2014-Sep-23 20:19N 38°41' E 008°38'1419.1
2014-Sep-23 19:33N 38°45' E 008°56'1919.0
2014-Sep-23 18:33N 39°01' E 009°09'1111.0
2014-Sep-23 17:33N 39°12' E 009°06'2 1.6
2014-Sep-23 16:32N 39°13' E 009°04'0 0.0
2014-Sep-23 15:31N 39°13' E 009°04'0 0.0
2014-Sep-23 14:31N 39°13' E 009°04'0 0.0
2014-Sep-23 13:33N 39°13' E 009°04'0 0.0
2014-Sep-23 12:33N 39°13' E 009°04'0 0.0
2014-Sep-23 11:33N 39°13' E 009°04'0 0.0
2014-Sep-23 10:33N 39°13' E 009°04'0 0.0
2014-Sep-23 09:33N 39°13' E 009°04'0 0.0
2014-Sep-23 08:33N 39°13' E 009°04'0 0.0
2014-Sep-23 07:33N 39°13' E 009°04'0 0.0
2014-Sep-23 06:33N 39°13' E 009°04'0 0.0
2014-Sep-23 05:33N 39°13' E 009°04'0 0.0
2014-Sep-23 04:33N 39°13' E 009°04'3 2.7
2014-Sep-23 03:33N 39°11' E 009°06'4 3.6
2014-Sep-23 02:33N 39°07' E 009°06'1111.0
2014-Sep-23 01:33N 39°02' E 009°18'1717.0
2014-Sep-23 00:32N 38°52' E 009°37'1717.6
2014-Sep-22 23:33N 38°43' E 009°56'1717.4
2014-Sep-22 22:33N 38°34' E 010°15'1817.7
2014-Sep-22 21:33N 38°25' E 010°34'1817.7
2014-Sep-22 20:33N 38°15' E 010°53'1818.0
2014-Sep-22 19:33N 38°05' E 011°12'8917.6
2014-Sep-22 14:32N 37°17' E 012°46'1717.8
2014-Sep-22 13:33N 37°08' E 013°05'1818.0
2014-Sep-22 12:33N 36°59' E 013°24'1817.7
2014-Sep-22 11:33N 36°50' E 013°43'1717.3
2014-Sep-22 10:33N 36°41' E 014°02'1717.1
2014-Sep-22 09:33N 36°34' E 014°21'1717.1
2014-Sep-22 08:33N 36°25' E 014°39'1817.6
2014-Sep-22 07:33N 36°18' E 014°59'1717.4
2014-Sep-22 06:33N 36°17' E 015°21'  
Track history (hours):
 
Tides and Currents Weather Stations Pressure Air Temp Water Temp Dewpoint Dewpoint Depression Visibility Wind Speed Wind Dir Waves Ship Positions

APL Coral

Owner: APL Maritime Ltd., Bethesda, MD. More information available from US FCC via Universal Licensing System and Coast Guard Vessel Documentation Center.

Last reported at 2014-Oct-02 03:29 UTC. Time now 2014-Oct-02 12:31 UTC.
Position N 44°16' W 063°25'.

Length 275 m; draft 13.1 m.

Type: Ship (hazmat cat A). MMSI: 367478280.

Date/timePositionNaut miles runAvg speedWind from/ knotsBaromVisibWave heightAir tempDewpointWater temp
2014-Oct-02 03:29N 44°16' W 063°25'1516.5
2014-Oct-02 02:33N 44°31' W 063°31'10 9.7
2014-Oct-02 01:33N 44°40' W 063°35'2 1.6
2014-Oct-02 00:31N 44°40' W 063°38'0 0.0
2014-Oct-01 23:33N 44°40' W 063°38'0 0.0
2014-Oct-01 22:33N 44°40' W 063°38'0 0.0
2014-Oct-01 21:33N 44°40' W 063°38'0 0.0
2014-Oct-01 20:33N 44°40' W 063°38'0 0.0
2014-Oct-01 19:33N 44°40' W 063°38'0 0.0
2014-Oct-01 18:33N 44°40' W 063°38'0 0.0
2014-Oct-01 17:33N 44°40' W 063°38'0 0.0
2014-Oct-01 16:30N 44°40' W 063°38'0 0.1
2014-Oct-01 15:33N 44°40' W 063°38'0 0.1
2014-Oct-01 14:33N 44°40' W 063°38'0 0.0
2014-Oct-01 13:33N 44°40' W 063°38'0 0.0
2014-Oct-01 12:33N 44°40' W 063°38'0 0.0
2014-Oct-01 11:33N 44°40' W 063°38'  
2014-Sep-25 20:23N 36°41' W 010°11'1720.3
2014-Sep-25 19:33N 36°33' W 009°54'2020.1
2014-Sep-25 18:34N 36°23' W 009°32'19719.6
2014-Sep-25 08:32N 35°60' W 005°29'69319.1
2014-Sep-23 20:19N 38°41' E 008°38'1419.1
2014-Sep-23 19:33N 38°45' E 008°56'1919.0
2014-Sep-23 18:33N 39°01' E 009°09'1111.0
2014-Sep-23 17:33N 39°12' E 009°06'2 1.6
2014-Sep-23 16:32N 39°13' E 009°04'0 0.0
2014-Sep-23 15:31N 39°13' E 009°04'0 0.0
2014-Sep-23 14:31N 39°13' E 009°04'0 0.0
2014-Sep-23 13:33N 39°13' E 009°04'0 0.0
2014-Sep-23 12:33N 39°13' E 009°04'0 0.0
2014-Sep-23 11:33N 39°13' E 009°04'0 0.0
2014-Sep-23 10:33N 39°13' E 009°04'0 0.0
2014-Sep-23 09:33N 39°13' E 009°04'0 0.0
2014-Sep-23 08:33N 39°13' E 009°04'0 0.0
2014-Sep-23 07:33N 39°13' E 009°04'0 0.0
2014-Sep-23 06:33N 39°13' E 009°04'0 0.0
2014-Sep-23 05:33N 39°13' E 009°04'0 0.0
2014-Sep-23 04:33N 39°13' E 009°04'3 2.7
2014-Sep-23 03:33N 39°11' E 009°06'4 3.6
2014-Sep-23 02:33N 39°07' E 009°06'1111.0
2014-Sep-23 01:33N 39°02' E 009°18'1717.0
2014-Sep-23 00:32N 38°52' E 009°37'1717.6
2014-Sep-22 23:33N 38°43' E 009°56'1717.4
2014-Sep-22 22:33N 38°34' E 010°15'1817.7
2014-Sep-22 21:33N 38°25' E 010°34'1817.7
2014-Sep-22 20:33N 38°15' E 010°53'1818.0
2014-Sep-22 19:33N 38°05' E 011°12'8917.6
2014-Sep-22 14:32N 37°17' E 012°46'1717.8
2014-Sep-22 13:33N 37°08' E 013°05'1818.0
2014-Sep-22 12:33N 36°59' E 013°24'1817.7
2014-Sep-22 11:33N 36°50' E 013°43'1717.3
2014-Sep-22 10:33N 36°41' E 014°02'1717.1
2014-Sep-22 09:33N 36°34' E 014°21'1717.1
2014-Sep-22 08:33N 36°25' E 014°39'1817.6
2014-Sep-22 07:33N 36°18' E 014°59'1717.4
2014-Sep-22 06:33N 36°17' E 015°21'  

Dump ship's entire track history